Вернуться в каталог

TEVEL2-8

АктивенЛюбительское радиоSSO
NORAD 63239·PAYLOAD·🇮🇱 Israel

Запущен Mar 15, 2025 с Vandenberg Space Force Base

Loading…

Ближайшие Пролёты (ближайшие 24 часа)

TLE

СвежийSource: Space-Track

Эпоха: Sep 14, 2026, 12:13 UTC

1 63239U 25052AF  26257.50920075  .00013336  00000-0  40679-3 0  9992
2 63239  97.3801 152.6084 0006101 163.8267 196.3172 15.34042962 83703

Отслеживайте TEVEL2-8 в реальном времени с AllMySat

Download on the App Store